[[{"header":{"parameterUnit":"m.s-1","parameterCategory":1,"la1":30.2992,"la2":30.254,"lo1":-89.0895,"lo2":-89.0443,"dy":0.0025,"dx":0.0025,"nx":19,"ny":19,"refTime":"2026-03-08T09:00:00:Z","depth":0,"parameterNumber":2,"parameterNumberName":"U-component_of_WINDS"},"data":[0,0,0,-0.1078,-0.1074,-0.0909,-0.0908,-0.0721,-0.0719,0,0,0,0,0,0,0,0,0,0,0,-0.1142,-0.1141,-0.1078,-0.1074,-0.0909,-0.0908,-0.0721,-0.0719,0,0,0,0,0,0,0,0,0,0,0,-0.1142,-0.1142,-0.1141,-0.1074,-0.0909,-0.0908,-0.0721,-0.0837,0,0,0,0,0,0,0,0,0,0,-0.0994,-0.1068,-0.1142,-0.1141,-0.1073,-0.091,-0.0908,-0.0842,-0.083,-0.0806,0,-0.079,0,-0.0752,-0.0709,-0.0708,0,0,0,-0.1062,-0.1079,-0.1021,-0.114,-0.1071,-0.091,-0.098,-0.0835,-0.0821,-0.079,-0.0787,-0.078,-0.0749,-0.0707,-0.0707,-0.0614,-0.0614,0,0,-0.1071,-0.112,-0.103,-0.1012,-0.1041,-0.0986,-0.0975,-0.0826,-0.0826,-0.0787,-0.0775,-0.0746,-0.0706,-0.0705,-0.0614,-0.0614,0,0,0,-0.1106,-0.1127,-0.1072,-0.1021,-0.0989,-0.0981,-0.0969,-0.0833,-0.0811,-0.0773,-0.0744,-0.0705,-0.0703,-0.0613,-0.0614,-0.0669,0,0,0,-0.111,-0.1147,-0.1076,-0.1105,-0.0993,-0.0909,-0.098,-0.0821,-0.0803,-0.0745,-0.0705,-0.0702,-0.0613,-0.0613,-0.0667,-0.0687,0,0,0,-0.1147,-0.1151,-0.1133,-0.1108,-0.1039,-0.091,-0.0879,-0.0816,-0.0786,-0.0708,-0.0701,-0.0613,-0.0613,-0.0666,-0.0684,-0.0679,0,0,0,-0.1201,-0.1183,-0.1135,-0.1103,-0.1041,-0.0947,-0.088,-0.0807,-0.0747,-0.0705,-0.0613,-0.0614,-0.0665,-0.0682,-0.0677,-0.0684,-0.0691,0,0,-0.1206,-0.1185,-0.1163,-0.1115,-0.1043,-0.0968,-0.0902,-0.08,-0.0746,-0.0661,-0.0658,-0.0668,-0.0684,-0.0678,-0.0711,-0.0718,0,0,0,-0.1181,-0.1166,-0.1136,-0.1082,-0.1005,-0.094,-0.0843,-0.0805,-0.073,-0.0713,-0.0662,-0.067,-0.0665,-0.0666,-0.0671,-0.0663,-0.0616,-0.0616,-0.0616,-0.1259,-0.1193,-0.1153,-0.1068,-0.1016,-0.0917,-0.0869,-0.0801,-0.0748,-0.0737,-0.0712,-0.074,-0.0743,-0.0746,-0.074,-0.0709,-0.0709,-0.0709,-0.0709,-0.1261,-0.123,-0.1162,-0.1099,-0.103,-0.0975,-0.0879,-0.0844,-0.0783,-0.0753,-0.0745,-0.072,-0.0755,-0.0746,-0.0713,-0.0712,-0.0712,-0.0711,-0.0711,-0.1306,-0.128,-0.1235,-0.1151,-0.1094,-0.1008,-0.0953,-0.0891,-0.0832,-0.0824,-0.0791,-0.079,-0.0782,-0.0812,-0.0813,-0.0813,-0.0813,-0.0813,-0.0813,-0.137,-0.1318,-0.128,-0.1198,-0.1156,-0.1093,-0.0994,-0.095,-0.0886,-0.0845,-0.0844,-0.0794,-0.0771,-0.0767,-0.0814,-0.0814,-0.0814,-0.0814,-0.0813,-0.1399,-0.1383,-0.1325,-0.1284,-0.1182,-0.113,-0.1052,-0.0969,-0.0924,-0.0899,-0.085,-0.0843,-0.0817,-0.0812,-0.0809,-0.0864,-0.0864,-0.0864,-0.0864,-0.1438,-0.1419,-0.1347,-0.1285,-0.1216,-0.114,-0.1077,-0.1,-0.0917,-0.0885,-0.0868,-0.0858,-0.0856,-0.0831,-0.0826,-0.0822,-0.0879,-0.0879,-0.0879,-0.1453,-0.1425,-0.1384,-0.1304,-0.122,-0.115,-0.1089,-0.102,-0.0922,-0.0878,-0.0859,-0.0858,-0.0841,-0.0839,-0.0795,-0.0789,-0.078,0,0]},{"header":{"parameterUnit":"m.s-1","parameterCategory":1,"la1":30.2992,"la2":30.254,"lo1":-89.0895,"lo2":-89.0443,"dy":0.0025,"dx":0.0025,"nx":19,"ny":19,"refTime":"2026-03-08T09:00:00:Z","depth":0,"parameterNumber":3,"parameterNumberName":"V-component_of_WINDS"},"data":[0,0,0,3.0654,3.0654,3.068,3.068,3.0713,3.0713,0,0,0,0,0,0,0,0,0,0,0,3.0646,3.0647,3.0653,3.0654,3.068,3.068,3.0713,3.0713,0,0,0,0,0,0,0,0,0,0,0,3.0646,3.0647,3.0647,3.0654,3.068,3.068,3.0713,3.0693,0,0,0,0,0,0,0,0,0,0,3.0668,3.0662,3.0647,3.0647,3.0654,3.068,3.068,3.0692,3.0694,3.0701,0,3.0708,0,3.0711,3.0715,3.0715,0,0,0,3.0653,3.066,3.0667,3.0647,3.0655,3.068,3.0668,3.0693,3.0696,3.0704,3.0709,3.071,3.0712,3.0715,3.0716,3.0762,3.0762,0,0,3.0652,3.0651,3.0665,3.0669,3.0666,3.0667,3.0669,3.0695,3.0699,3.0709,3.0711,3.0712,3.0716,3.0716,3.0762,3.0762,0,0,0,3.0648,3.065,3.0656,3.0667,3.0672,3.0668,3.067,3.0698,3.07,3.0711,3.0713,3.0716,3.0716,3.0762,3.0762,3.0775,0,0,0,3.0647,3.0648,3.0656,3.0655,3.0672,3.0686,3.0673,3.0699,3.0701,3.0713,3.0716,3.0717,3.0761,3.0762,3.0775,3.0782,0,0,0,3.0644,3.0648,3.0652,3.0655,3.0666,3.0685,3.0689,3.0699,3.0703,3.0715,3.0717,3.0761,3.0762,3.0774,3.078,3.0795,0,0,0,3.0641,3.0661,3.0652,3.0676,3.0666,3.0694,3.0689,3.0709,3.0721,3.0716,3.0761,3.0762,3.0773,3.0779,3.0794,3.0808,3.0814,0,0,3.0666,3.0665,3.0679,3.0671,3.0701,3.069,3.0721,3.0732,3.0732,3.0752,3.0753,3.0775,3.078,3.0795,3.0844,3.0848,0,0,0,3.0687,3.0697,3.0705,3.0718,3.0729,3.0738,3.0745,3.075,3.0767,3.0743,3.0784,3.0787,3.0795,3.0802,3.0806,3.0814,3.0765,3.0765,3.0765,3.0722,3.0724,3.0748,3.0754,3.0767,3.0775,3.0785,3.0792,3.0788,3.0798,3.0804,3.0834,3.0841,3.0844,3.0853,3.0811,3.0811,3.0811,3.0811,3.0761,3.0777,3.0774,3.0797,3.0799,3.0817,3.0826,3.0823,3.0841,3.0829,3.0836,3.0824,3.0849,3.0857,3.0812,3.0812,3.0812,3.0812,3.0811,3.0785,3.0793,3.0799,3.082,3.0835,3.0839,3.0857,3.0857,3.0857,3.0865,3.0872,3.0872,3.0873,3.0868,3.0868,3.0869,3.0869,3.0869,3.0869,3.0807,3.0814,3.083,3.0845,3.0854,3.0867,3.0876,3.0885,3.0894,3.0893,3.0893,3.089,3.0851,3.0842,3.087,3.087,3.087,3.087,3.087,3.0848,3.0839,3.0864,3.0874,3.0892,3.0908,3.0908,3.0927,3.0934,3.0943,3.0938,3.0909,3.0906,3.0903,3.0896,3.0937,3.0937,3.0937,3.0937,3.0869,3.0868,3.0895,3.0911,3.0926,3.093,3.0958,3.0965,3.0971,3.0976,3.097,3.096,3.0957,3.0956,3.0952,3.0945,3.0997,3.0997,3.0997,3.0894,3.0896,3.092,3.0928,3.0943,3.0955,3.0981,3.0999,3.1004,3.1,3.098,3.0977,3.0961,3.0956,3.0952,3.0945,3.0933,0,0]}]]